Location: Bluff Heights
(33.7692°N, 118.1592°W)
Time: 01:06:15
(UTC+00:00)

Vanguard 1 Rocket - Pass Details

Date: 25 September 2021
Orbit: 650 x 4226 km, 34.3° (Epoch: 22 October)

Event Time Altitude Azimuth Distance (km) Brightness Sun altitude
Exits shadow 08:47:55 20° 118° (ESE) 4,613 10.8 -54.0°
Drops below altitude 10° 08:52:24 10° 116° (ESE) 5,891 11.5 -53.6°
Sets 08:58:10 0° 115° (ESE) 7,432 12.1 -52.9°
